Powrót do katalogu

ELEKTRO

GOMS

AktywnyPogodaGEO
NORAD 23327·PAYLOAD·🇷🇺 Russia

Wystrzelony Oct 31, 1994 z Baikonur Cosmodrome

Loading…

TLE

ŚwieżeSource: Space-Track

Epoka: Sep 13, 2026, 17:40 UTC

1 23327U 94069A   26256.73618120 -.00000186  00000-0  00000-0 0  9990
2 23327  14.4465 348.6050 0009482 266.0714  85.2700  1.00274794116754

Śledź ELEKTRO w czasie rzeczywistym z AllMySat

Download on the App Store